| time (UTC) | temp F | wind direction | speed MPH | gust MPH | rain 1hr in | rain 24hr in | rain mn in | humidity % | barometer mb |
| 20260510132116 | 72 | 151 | 6.0 | 8.0 | 0.00 | 0.00 | 0.00 | 43 | 1013.1 |
| 20260510131620 | 73 | 151 | 5.0 | 8.0 | 0.00 | 0.00 | 0.00 | 45 | 1013.2 |
| 20260510131125 | 72 | 147 | 4.0 | 5.0 | 0.00 | 0.00 | 0.00 | 48 | 1013.3 |
| 20260510130629 | 72 | 176 | 5.0 | 8.0 | 0.00 | 0.00 | 0.00 | 48 | 1013.4 |
| 20260510130134 | 71 | 128 | 5.0 | 8.0 | 0.00 | 0.00 | 0.00 | 45 | 1013.5 |
| 20260510125143 | 73 | 143 | 5.0 | 7.0 | 0.00 | 0.00 | 0.00 | 46 | 1013.6 |
| 20260510124152 | 73 | 100 | 4.0 | 8.0 | 0.00 | 0.00 | 0.00 | 47 | 1013.7 |
| 20260510123657 | 72 | 97 | 5.0 | 8.0 | 0.00 | 0.00 | 0.00 | 45 | 1013.8 |
| 20260510122706 | 72 | 154 | 6.0 | 10.0 | 0.00 | 0.00 | 0.00 | 43 | 1013.9 |
| 20260510122210 | 72 | 164 | 6.0 | 8.0 | 0.00 | 0.00 | 0.00 | 51 | 1014.0 |
| 20260510121715 | 72 | 112 | 4.0 | 8.0 | 0.00 | 0.00 | 0.00 | 48 | 1014.0 |
| 20260510121219 | 72 | 125 | 5.0 | 7.0 | 0.00 | 0.00 | 0.00 | 49 | 1014.2 |
| 20260510120724 | 72 | 109 | 7.0 | 10.0 | 0.00 | 0.00 | 0.00 | 47 | 1014.2 |
| 20260510120229 | 73 | 207 | 3.0 | 7.0 | 0.00 | 0.00 | 0.00 | 49 | 1014.3 |
| 20260510115733 | 71 | 141 | 4.0 | 8.0 | 0.00 | 0.00 | 0.00 | 52 | 1014.4 |
| 20260510115238 | 71 | 111 | 5.0 | 8.0 | 0.00 | 0.00 | 0.00 | 50 | 1014.5 |
| 20260510114742 | 71 | 108 | 4.0 | 7.0 | 0.00 | 0.00 | 0.00 | 52 | 1014.5 |
| 20260510114247 | 70 | 157 | 6.0 | 10.0 | 0.00 | 0.00 | 0.00 | 52 | 1014.6 |
| 20260510113751 | 71 | 168 | 7.0 | 11.0 | 0.00 | 0.00 | 0.00 | 49 | 1014.6 |
| 20260510113256 | 71 | 170 | 6.0 | 9.0 | 0.00 | 0.00 | 0.00 | 54 | 1014.7 |
| 20260510112801 | 70 | 170 | 6.0 | 12.0 | 0.00 | 0.00 | 0.00 | 49 | 1014.8 |
| 20260510112306 | 70 | 150 | 7.0 | 11.0 | 0.00 | 0.00 | 0.00 | 52 | 1014.8 |
| 20260510111810 | 70 | 151 | 6.0 | 12.0 | 0.00 | 0.00 | 0.00 | 45 | 1014.9 |
| 20260510111315 | 70 | 124 | 5.0 | 8.0 | 0.00 | 0.00 | 0.00 | 54 | 1015.0 |
| 20260510110819 | 70 | 133 | 5.0 | 7.0 | 0.00 | 0.00 | 0.00 | 48 | 1015.0 |
| 20260510110324 | 70 | 139 | 5.0 | 8.0 | 0.00 | 0.00 | 0.00 | 54 | 1015.1 |
| 20260510105828 | 70 | 139 | 6.0 | 8.0 | 0.00 | 0.00 | 0.00 | 49 | 1015.2 |
| 20260510105333 | 70 | 165 | 3.0 | 5.0 | 0.00 | 0.00 | 0.00 | 55 | 1015.2 |
| 20260510104838 | 68 | 138 | 7.0 | 9.0 | 0.00 | 0.00 | 0.00 | 53 | 1015.4 |
| 20260510104343 | 69 | 166 | 6.0 | 9.0 | 0.00 | 0.00 | 0.00 | 50 | 1015.3 |
| 20260510103848 | 69 | 174 | 6.0 | 8.0 | 0.00 | 0.00 | 0.00 | 54 | 1015.4 |
| 20260510103353 | 68 | 113 | 6.0 | 9.0 | 0.00 | 0.00 | 0.00 | 52 | 1015.5 |
| 20260510102857 | 68 | 108 | 7.0 | 10.0 | 0.00 | 0.00 | 0.00 | 47 | 1015.5 |
| 20260510102402 | 68 | 156 | 6.0 | 9.0 | 0.00 | 0.00 | 0.00 | 50 | 1015.6 |
| 20260510101907 | 68 | 149 | 6.0 | 8.0 | 0.00 | 0.00 | 0.00 | 52 | 1015.7 |
| 20260510101412 | 68 | 175 | 7.0 | 10.0 | 0.00 | 0.00 | 0.00 | 57 | 1015.8 |
| 20260510100917 | 67 | 164 | 9.0 | 11.0 | 0.00 | 0.00 | 0.00 | 51 | 1015.9 |
| 20260510100422 | 68 | 168 | 8.0 | 10.0 | 0.00 | 0.00 | 0.00 | 56 | 1015.8 |
| 20260510095926 | 67 | 130 | 4.0 | 6.0 | 0.00 | 0.00 | 0.00 | 58 | 1015.9 |
| 20260510095431 | 66 | 135 | 6.0 | 7.0 | 0.00 | 0.00 | 0.00 | 53 | 1015.9 |
| 20260510094936 | 66 | 133 | 7.0 | 9.0 | 0.00 | 0.00 | 0.00 | 52 | 1016.0 |
| 20260510094442 | 66 | 159 | 8.0 | 9.0 | 0.00 | 0.00 | 0.00 | 54 | 1016.0 |
| 20260510093946 | 65 | 158 | 6.0 | 8.0 | 0.00 | 0.00 | 0.00 | 57 | 1016.0 |
| 20260510093451 | 64 | 148 | 8.0 | 11.0 | 0.00 | 0.00 | 0.00 | 51 | 1016.0 |
| 20260510092956 | 64 | 134 | 9.0 | 12.0 | 0.00 | 0.00 | 0.00 | 50 | 1016.0 |
| 20260510092501 | 65 | 158 | 7.0 | 10.0 | 0.00 | 0.00 | 0.00 | 55 | 1016.2 |
| 20260510092006 | 64 | 148 | 8.0 | 10.0 | 0.00 | 0.00 | 0.00 | 54 | 1016.2 |
| 20260510091511 | 64 | 153 | 9.0 | 13.0 | 0.00 | 0.00 | 0.00 | 52 | 1016.3 |
| 20260510091017 | 64 | 129 | 8.0 | 10.0 | 0.00 | 0.00 | 0.00 | 51 | 1016.4 |
| 20260510090027 | 64 | 138 | 7.0 | 10.0 | 0.00 | 0.00 | 0.00 | 55 | 1016.5 |
| 20260510085532 | 65 | 123 | 5.0 | 8.0 | 0.00 | 0.00 | 0.00 | 54 | 1016.5 |
| 20260510085037 | 64 | 113 | 6.0 | 8.0 | 0.00 | 0.00 | 0.00 | 55 | 1016.7 |
| 20260510084542 | 64 | 134 | 5.0 | 7.0 | 0.00 | 0.00 | 0.00 | 57 | 1016.5 |
| 20260510084047 | 63 | 139 | 6.0 | 10.0 | 0.00 | 0.00 | 0.00 | 58 | 1016.7 |
| 20260510083552 | 63 | 147 | 5.0 | 8.0 | 0.00 | 0.00 | 0.00 | 61 | 1016.8 |
| 20260510083057 | 63 | 138 | 6.0 | 8.0 | 0.00 | 0.00 | 0.00 | 57 | 1016.8 |
| 20260510082602 | 63 | 135 | 6.0 | 8.0 | 0.00 | 0.00 | 0.00 | 58 | 1016.8 |
| 20260510082107 | 62 | 129 | 6.0 | 8.0 | 0.00 | 0.00 | 0.00 | 59 | 1017.0 |
| 20260510081612 | 63 | 157 | 6.0 | 7.0 | 0.00 | 0.00 | 0.00 | 60 | 1017.0 |
| 20260510080623 | 63 | 125 | 5.0 | 7.0 | 0.00 | 0.00 | 0.00 | 63 | 1017.1 |
| 20260510080128 | 62 | 122 | 5.0 | 6.0 | 0.00 | 0.00 | 0.00 | 65 | 1017.1 |
| 20260510075633 | 62 | 148 | 4.0 | 6.0 | 0.00 | 0.00 | 0.00 | 65 | 1017.2 |
| 20260510075138 | 62 | 138 | 5.0 | 8.0 | 0.00 | 0.00 | 0.00 | 64 | 1017.2 |
| 20260510074643 | 61 | 126 | 4.0 | 7.0 | 0.00 | 0.00 | 0.00 | 64 | 1017.2 |
| 20260510074149 | 60 | 139 | 5.0 | 7.0 | 0.00 | 0.00 | 0.00 | 66 | 1017.2 |
| 20260510073654 | 60 | 148 | 5.0 | 7.0 | 0.00 | 0.00 | 0.00 | 67 | 1017.2 |
| 20260510073159 | 59 | 123 | 5.0 | 7.0 | 0.00 | 0.00 | 0.00 | 67 | 1017.3 |
| 20260510072704 | 59 | 136 | 5.0 | 7.0 | 0.00 | 0.00 | 0.00 | 66 | 1017.4 |
| 20260510072210 | 59 | 128 | 5.0 | 6.0 | 0.00 | 0.00 | 0.00 | 68 | 1017.5 |
| 20260510071715 | 59 | 116 | 5.0 | 6.0 | 0.00 | 0.00 | 0.00 | 67 | 1017.4 |
| 20260510070726 | 58 | 114 | 4.0 | 6.0 | 0.00 | 0.00 | 0.00 | 68 | 1017.5 |
| 20260510070231 | 58 | 132 | 5.0 | 6.0 | 0.00 | 0.00 | 0.00 | 68 | 1017.6 |
| 20260510065737 | 58 | 136 | 5.0 | 5.0 | 0.00 | 0.00 | 0.00 | 68 | 1017.8 |
| 20260510065242 | 58 | 112 | 4.0 | 5.0 | 0.00 | 0.00 | 0.00 | 68 | 1017.9 |
| 20260510064747 | 57 | 116 | 4.0 | 7.0 | 0.00 | 0.00 | 0.00 | 68 | 1018.0 |
| 20260510064253 | 56 | 123 | 4.0 | 5.0 | 0.00 | 0.00 | 0.00 | 68 | 1018.1 |
| 20260510063759 | 56 | 116 | 4.0 | 5.0 | 0.00 | 0.00 | 0.00 | 68 | 1018.1 |
| 20260510063304 | 56 | 93 | 4.0 | 6.0 | 0.00 | 0.00 | 0.00 | 69 | 1018.1 |
| 20260510062810 | 55 | 132 | 4.0 | 5.0 | 0.00 | 0.00 | 0.00 | 69 | 1018.1 |
| 20260510062315 | 55 | 134 | 4.0 | 5.0 | 0.00 | 0.00 | 0.00 | 69 | 1018.1 |
| 20260510061821 | 54 | 129 | 4.0 | 5.0 | 0.00 | 0.00 | 0.00 | 69 | 1018.1 |
| 20260510061326 | 54 | 129 | 4.0 | 5.0 | 0.00 | 0.00 | 0.00 | 69 | 1018.1 |
| 20260510060832 | 54 | 147 | 3.0 | 5.0 | 0.00 | 0.00 | 0.00 | 70 | 1018.2 |
| 20260510060338 | 54 | 106 | 4.0 | 5.0 | 0.00 | 0.00 | 0.00 | 69 | 1018.2 |
| 20260510055843 | 53 | 113 | 4.0 | 6.0 | 0.00 | 0.00 | 0.00 | 69 | 1018.2 |
| 20260510055349 | 53 | 139 | 3.0 | 4.0 | 0.00 | 0.00 | 0.00 | 70 | 1018.3 |
| 20260510054854 | 52 | 136 | 4.0 | 5.0 | 0.00 | 0.00 | 0.00 | 70 | 1018.4 |
| 20260510054400 | 52 | 138 | 3.0 | 5.0 | 0.00 | 0.00 | 0.00 | 70 | 1018.4 |
| 20260510053906 | 52 | 146 | 4.0 | 5.0 | 0.00 | 0.00 | 0.00 | 70 | 1018.4 |
| 20260510053411 | 53 | 139 | 4.0 | 5.0 | 0.00 | 0.00 | 0.00 | 69 | 1018.5 |
| 20260510052917 | 53 | 147 | 3.0 | 5.0 | 0.00 | 0.00 | 0.00 | 69 | 1018.5 |
| 20260510052423 | 52 | 126 | 2.0 | 3.0 | 0.00 | 0.00 | 0.00 | 69 | 1018.4 |
| 20260510051929 | 52 | 138 | 2.0 | 3.0 | 0.00 | 0.00 | 0.00 | 70 | 1018.4 |
| 20260510051434 | 51 | 138 | 3.0 | 4.0 | 0.00 | 0.00 | 0.00 | 70 | 1018.3 |
| 20260510050940 | 51 | 132 | 3.0 | 4.0 | 0.00 | 0.00 | 0.00 | 70 | 1018.4 |
| 20260510050445 | 52 | 144 | 3.0 | 3.0 | 0.00 | 0.00 | 0.00 | 68 | 1018.4 |
| 20260510045951 | 52 | 145 | 2.0 | 3.0 | 0.00 | 0.00 | 0.00 | 67 | 1018.4 |
| 20260510045457 | 52 | 151 | 2.0 | 3.0 | 0.00 | 0.00 | 0.00 | 66 | 1018.4 |
| 20260510045003 | 52 | 193 | 1.0 | 2.0 | 0.00 | 0.00 | 0.00 | 66 | 1018.4 |
| 20260510044508 | 51 | 193 | 1.0 | 3.0 | 0.00 | 0.00 | 0.00 | 68 | 1018.4 |
| 20260510044014 | 50 | 96 | 1.0 | 2.0 | 0.00 | 0.00 | 0.00 | 69 | 1018.4 |
| 20260510043520 | 49 | 90 | 2.0 | 3.0 | 0.00 | 0.00 | 0.00 | 72 | 1018.5 |
| 20260510043026 | 47 | 104 | 1.0 | 2.0 | 0.00 | 0.00 | 0.00 | 75 | 1018.4 |
| 20260510042532 | 45 | 109 | 3.0 | 3.0 | 0.00 | 0.00 | 0.00 | 81 | 1018.4 |
| 20260510042038 | 44 | 125 | 4.0 | 4.0 | 0.00 | 0.00 | 0.00 | 84 | 1018.3 |
| 20260510041544 | 44 | 114 | 4.0 | 4.0 | 0.00 | 0.00 | 0.00 | 84 | 1018.4 |
| 20260510041050 | 44 | 129 | 4.0 | 4.0 | 0.00 | 0.00 | 0.00 | 83 | 1018.4 |
| 20260510040556 | 44 | 120 | 4.0 | 4.0 | 0.00 | 0.00 | 0.00 | 83 | 1018.5 |
| 20260510035114 | 45 | 126 | 4.0 | 5.0 | 0.00 | 0.00 | 0.00 | 80 | 1018.4 |
| 20260510034620 | 45 | 105 | 4.0 | 5.0 | 0.00 | 0.00 | 0.00 | 81 | 1018.4 |
| 20260510034126 | 45 | 106 | 4.0 | 4.0 | 0.00 | 0.00 | 0.00 | 82 | 1018.4 |
| 20260510033633 | 44 | 111 | 4.0 | 5.0 | 0.00 | 0.00 | 0.00 | 83 | 1018.4 |
| 20260510033139 | 44 | 123 | 4.0 | 4.0 | 0.00 | 0.00 | 0.00 | 84 | 1018.4 |
| 20260510032645 | 44 | 108 | 4.0 | 4.0 | 0.00 | 0.00 | 0.00 | 84 | 1018.4 |
| 20260510032151 | 44 | 97 | 4.0 | 5.0 | 0.00 | 0.00 | 0.00 | 84 | 1018.3 |
| 20260510031657 | 44 | 97 | 5.0 | 6.0 | 0.00 | 0.00 | 0.00 | 85 | 1018.3 |
| 20260510031203 | 44 | 96 | 6.0 | 7.0 | 0.00 | 0.00 | 0.00 | 84 | 1018.1 |
| 20260510030709 | 44 | 100 | 5.0 | 6.0 | 0.00 | 0.00 | 0.00 | 82 | 1018.2 |
| 20260510030215 | 44 | 105 | 4.0 | 5.0 | 0.00 | 0.00 | 0.00 | 82 | 1018.2 |
| 20260510025721 | 44 | 132 | 4.0 | 5.0 | 0.00 | 0.00 | 0.00 | 80 | 1018.3 |
| 20260510025227 | 44 | 135 | 3.0 | 4.0 | 0.00 | 0.00 | 0.00 | 79 | 1018.4 |
| 20260510024733 | 44 | 109 | 4.0 | 5.0 | 0.00 | 0.00 | 0.00 | 79 | 1018.4 |
| 20260510024239 | 45 | 96 | 4.0 | 5.0 | 0.00 | 0.00 | 0.00 | 78 | 1018.3 |
| 20260510023746 | 45 | 90 | 4.0 | 5.0 | 0.00 | 0.00 | 0.00 | 77 | 1018.2 |
| 20260510023251 | 45 | 93 | 5.0 | 5.0 | 0.00 | 0.00 | 0.00 | 75 | 1018.3 |
| 20260510022757 | 45 | 87 | 4.0 | 5.0 | 0.00 | 0.00 | 0.00 | 75 | 1018.4 |
| 20260510022306 | 45 | 84 | 4.0 | 5.0 | 0.00 | 0.00 | 0.00 | 72 | 1018.5 |
| 20260510021809 | 46 | 87 | 4.0 | 5.0 | 0.00 | 0.00 | 0.00 | 72 | 1018.5 |
| 20260510021315 | 46 | 84 | 4.0 | 5.0 | 0.00 | 0.00 | 0.00 | 72 | 1018.6 |
| 20260510020822 | 46 | 90 | 4.0 | 4.0 | 0.00 | 0.00 | 0.00 | 72 | 1018.7 |
| 20260510020327 | 46 | 93 | 3.0 | 3.0 | 0.00 | 0.00 | 0.00 | 72 | 1018.9 |
| 20260510015834 | 46 | 89 | 4.0 | 5.0 | 0.00 | 0.00 | 0.00 | 72 | 1018.9 |
| 20260510015339 | 46 | 86 | 4.0 | 6.0 | 0.00 | 0.00 | 0.00 | 72 | 1018.8 |
| 20260510014846 | 46 | 82 | 5.0 | 5.0 | 0.00 | 0.00 | 0.00 | 73 | 1018.8 |
| 20260510014351 | 46 | 86 | 5.0 | 6.0 | 0.00 | 0.00 | 0.00 | 72 | 1018.9 |
| 20260510013857 | 46 | 78 | 5.0 | 6.0 | 0.00 | 0.00 | 0.00 | 71 | 1018.9 |
| 20260510013404 | 46 | 93 | 5.0 | 5.0 | 0.00 | 0.00 | 0.00 | 71 | 1018.9 |
| 20260510012910 | 46 | 71 | 4.0 | 4.0 | 0.00 | 0.00 | 0.00 | 71 | 1019.0 |
| 20260510012415 | 46 | 53 | 4.0 | 4.0 | 0.00 | 0.00 | 0.00 | 71 | 1019.0 |
| 20260510011427 | 47 | 84 | 4.0 | 5.0 | 0.00 | 0.00 | 0.00 | 71 | 1019.0 |
| 20260510010934 | 47 | 90 | 4.0 | 5.0 | 0.00 | 0.00 | 0.00 | 70 | 1019.1 |
| 20260510010440 | 47 | 90 | 4.0 | 5.0 | 0.00 | 0.00 | 0.00 | 71 | 1019.1 |
| 20260510005451 | 47 | 80 | 4.0 | 5.0 | 0.00 | 0.00 | 0.00 | 70 | 1019.1 |
| 20260510004957 | 47 | 83 | 5.0 | 6.0 | 0.00 | 0.00 | 0.00 | 70 | 1019.1 |
| 20260510004503 | 47 | 90 | 4.0 | 5.0 | 0.00 | 0.00 | 0.00 | 71 | 1019.2 |
| 20260510004009 | 47 | 90 | 4.0 | 5.0 | 0.00 | 0.00 | 0.00 | 71 | 1019.3 |
| 20260510003515 | 47 | 90 | 4.0 | 5.0 | 0.00 | 0.00 | 0.00 | 71 | 1019.3 |
| 20260510003021 | 47 | 91 | 4.0 | 5.0 | 0.00 | 0.00 | 0.00 | 70 | 1019.4 |
| 20260510002527 | 47 | 91 | 3.0 | 5.0 | 0.00 | 0.00 | 0.00 | 71 | 1019.5 |
| 20260510002033 | 47 | 97 | 3.0 | 3.0 | 0.00 | 0.00 | 0.00 | 70 | 1019.6 |
| 20260510001539 | 47 | 108 | 2.0 | 3.0 | 0.00 | 0.00 | 0.00 | 70 | 1019.7 |
| 20260510001045 | 47 | 129 | 2.0 | 2.0 | 0.00 | 0.00 | 0.00 | 70 | 1019.7 |
| 20260510000551 | 47 | 170 | 2.0 | 3.0 | 0.00 | 0.00 | 0.00 | 70 | 1019.9 |
| 20260510000057 | 47 | 179 | 1.0 | 2.0 | 0.00 | 0.00 | 0.00 | 70 | 1019.9 |
| 20260509235603 | 47 | 162 | 1.0 | 2.0 | 0.00 | 0.00 | 0.00 | 71 | 1019.9 |
| 20260509235109 | 48 | 135 | 2.0 | 3.0 | 0.00 | 0.00 | 0.00 | 71 | 1020.0 |
| 20260509234615 | 48 | 125 | 3.0 | 4.0 | 0.00 | 0.00 | 0.00 | 71 | 1020.0 |
| 20260509234121 | 48 | 99 | 4.0 | 5.0 | 0.00 | 0.00 | 0.00 | 71 | 1020.0 |
| 20260509233627 | 48 | 96 | 4.0 | 5.0 | 0.00 | 0.00 | 0.00 | 71 | 1019.9 |
| 20260509233133 | 48 | 87 | 4.0 | 6.0 | 0.00 | 0.00 | 0.00 | 70 | 1019.9 |
| 20260509232639 | 48 | 84 | 4.0 | 7.0 | 0.00 | 0.00 | 0.00 | 71 | 1019.9 |
| 20260509232145 | 48 | 93 | 5.0 | 6.0 | 0.00 | 0.00 | 0.00 | 71 | 1019.9 |
| 20260509231651 | 49 | 90 | 5.0 | 6.0 | 0.00 | 0.00 | 0.00 | 72 | 1019.9 |
| 20260509231156 | 49 | 93 | 4.0 | 5.0 | 0.00 | 0.00 | 0.00 | 71 | 1020.0 |
| 20260509230702 | 49 | 93 | 4.0 | 5.0 | 0.00 | 0.00 | 0.00 | 71 | 1020.1 |
| 20260509230208 | 49 | 102 | 4.0 | 5.0 | 0.00 | 0.00 | 0.00 | 71 | 1020.1 |
| 20260509225714 | 49 | 105 | 4.0 | 5.0 | 0.00 | 0.00 | 0.00 | 71 | 1020.2 |
| 20260509225220 | 49 | 96 | 5.0 | 6.0 | 0.00 | 0.00 | 0.00 | 71 | 1020.2 |
| 20260509224726 | 49 | 90 | 5.0 | 6.0 | 0.00 | 0.00 | 0.00 | 70 | 1020.1 |
| 20260509223738 | 49 | 91 | 4.0 | 6.0 | 0.00 | 0.00 | 0.00 | 70 | 1020.2 |
| 20260509223244 | 50 | 96 | 4.0 | 5.0 | 0.00 | 0.00 | 0.00 | 69 | 1020.2 |
| 20260509222750 | 50 | 93 | 5.0 | 7.0 | 0.00 | 0.00 | 0.00 | 69 | 1020.2 |
| 20260509222255 | 50 | 90 | 5.0 | 6.0 | 0.00 | 0.00 | 0.00 | 68 | 1020.2 |
| 20260509221801 | 50 | 93 | 5.0 | 6.0 | 0.00 | 0.00 | 0.00 | 68 | 1020.3 |
| 20260509221307 | 50 | 87 | 5.0 | 6.0 | 0.00 | 0.00 | 0.00 | 68 | 1020.3 |
| 20260509220813 | 50 | 90 | 5.0 | 6.0 | 0.00 | 0.00 | 0.00 | 68 | 1020.2 |
| 20260509220319 | 50 | 84 | 5.0 | 6.0 | 0.00 | 0.00 | 0.00 | 68 | 1020.2 |
| 20260509215825 | 50 | 93 | 5.0 | 6.0 | 0.00 | 0.00 | 0.00 | 67 | 1020.3 |
| 20260509215331 | 51 | 90 | 5.0 | 6.0 | 0.00 | 0.00 | 0.00 | 68 | 1020.3 |
| 20260509214837 | 51 | 93 | 5.0 | 6.0 | 0.00 | 0.00 | 0.00 | 68 | 1020.3 |
| 20260509214342 | 51 | 93 | 5.0 | 5.0 | 0.00 | 0.00 | 0.00 | 68 | 1020.4 |
| 20260509213848 | 51 | 94 | 5.0 | 5.0 | 0.00 | 0.00 | 0.00 | 68 | 1020.4 |
| 20260509213354 | 51 | 91 | 5.0 | 6.0 | 0.00 | 0.00 | 0.00 | 67 | 1020.4 |
| 20260509212900 | 51 | 90 | 5.0 | 7.0 | 0.00 | 0.00 | 0.00 | 67 | 1020.4 |
| 20260509212405 | 51 | 87 | 5.0 | 6.0 | 0.00 | 0.00 | 0.00 | 67 | 1020.5 |
| 20260509211911 | 52 | 93 | 5.0 | 7.0 | 0.00 | 0.00 | 0.00 | 67 | 1020.4 |
| 20260509211417 | 52 | 90 | 5.0 | 7.0 | 0.00 | 0.00 | 0.00 | 66 | 1020.4 |
| 20260509210428 | 52 | 93 | 5.0 | 5.0 | 0.00 | 0.00 | 0.00 | 66 | 1020.5 |
| 20260509205934 | 52 | 90 | 4.0 | 5.0 | 0.00 | 0.00 | 0.00 | 66 | 1020.5 |
| 20260509205440 | 52 | 96 | 5.0 | 6.0 | 0.00 | 0.00 | 0.00 | 66 | 1020.5 |
| 20260509204946 | 52 | 87 | 5.0 | 7.0 | 0.00 | 0.00 | 0.00 | 66 | 1020.5 |
| 20260509204452 | 52 | 87 | 6.0 | 7.0 | 0.00 | 0.00 | 0.00 | 65 | 1020.5 |
| 20260509203957 | 52 | 90 | 6.0 | 7.0 | 0.00 | 0.00 | 0.00 | 65 | 1020.4 |
| 20260509203503 | 52 | 93 | 5.0 | 7.0 | 0.00 | 0.00 | 0.00 | 65 | 1020.5 |
| 20260509203009 | 52 | 89 | 5.0 | 6.0 | 0.00 | 0.00 | 0.00 | 65 | 1020.5 |
| 20260509202515 | 52 | 89 | 4.0 | 5.0 | 0.00 | 0.00 | 0.00 | 65 | 1020.5 |
| 20260509202021 | 52 | 96 | 5.0 | 6.0 | 0.00 | 0.00 | 0.00 | 65 | 1020.5 |
| 20260509201526 | 53 | 90 | 5.0 | 6.0 | 0.00 | 0.00 | 0.00 | 65 | 1020.5 |
| 20260509201032 | 53 | 87 | 5.0 | 7.0 | 0.00 | 0.00 | 0.00 | 65 | 1020.4 |
| 20260509200538 | 53 | 87 | 6.0 | 7.0 | 0.00 | 0.00 | 0.00 | 65 | 1020.4 |
| 20260509200044 | 53 | 87 | 7.0 | 8.0 | 0.00 | 0.00 | 0.00 | 66 | 1020.3 |
| 20260509195549 | 53 | 93 | 7.0 | 8.0 | 0.00 | 0.00 | 0.00 | 66 | 1020.3 |
| 20260509195055 | 53 | 90 | 6.0 | 7.0 | 0.00 | 0.00 | 0.00 | 66 | 1020.3 |
| 20260509194601 | 53 | 94 | 6.0 | 8.0 | 0.00 | 0.00 | 0.00 | 66 | 1020.3 |
| 20260509193612 | 53 | 90 | 6.0 | 7.0 | 0.00 | 0.00 | 0.00 | 65 | 1020.3 |
| 20260509193118 | 54 | 93 | 7.0 | 8.0 | 0.00 | 0.00 | 0.00 | 65 | 1020.3 |
| 20260509192624 | 54 | 90 | 6.0 | 8.0 | 0.00 | 0.00 | 0.00 | 65 | 1020.2 |
| 20260509192130 | 54 | 96 | 7.0 | 9.0 | 0.00 | 0.00 | 0.00 | 65 | 1020.2 |
| 20260509191635 | 54 | 84 | 6.0 | 8.0 | 0.00 | 0.00 | 0.00 | 64 | 1020.2 |
| 20260509191141 | 54 | 90 | 7.0 | 8.0 | 0.00 | 0.00 | 0.00 | 65 | 1020.2 |
| 20260509190647 | 54 | 90 | 7.0 | 7.0 | 0.00 | 0.00 | 0.00 | 65 | 1020.1 |
| 20260509190153 | 54 | 93 | 6.0 | 7.0 | 0.00 | 0.00 | 0.00 | 65 | 1020.1 |
| 20260509185658 | 54 | 90 | 7.0 | 8.0 | 0.00 | 0.00 | 0.00 | 66 | 1020.1 |
| 20260509185204 | 54 | 93 | 7.0 | 8.0 | 0.00 | 0.00 | 0.00 | 65 | 1020.1 |
| 20260509184710 | 54 | 90 | 7.0 | 8.0 | 0.00 | 0.00 | 0.00 | 65 | 1020.0 |
| 20260509184215 | 55 | 90 | 8.0 | 9.0 | 0.00 | 0.00 | 0.00 | 66 | 1019.9 |
| 20260509183721 | 55 | 93 | 7.0 | 8.0 | 0.00 | 0.00 | 0.00 | 65 | 1019.9 |
| 20260509183227 | 55 | 90 | 8.0 | 9.0 | 0.00 | 0.00 | 0.00 | 65 | 1019.9 |
| 20260509182732 | 55 | 90 | 8.0 | 9.0 | 0.00 | 0.00 | 0.00 | 65 | 1019.9 |
| 20260509182238 | 55 | 90 | 7.0 | 8.0 | 0.00 | 0.00 | 0.00 | 65 | 1019.9 |
| 20260509181744 | 55 | 96 | 8.0 | 10.0 | 0.00 | 0.00 | 0.00 | 64 | 1019.9 |
| 20260509181249 | 56 | 93 | 8.0 | 10.0 | 0.00 | 0.00 | 0.00 | 63 | 1019.9 |
| 20260509180755 | 56 | 103 | 6.0 | 9.0 | 0.00 | 0.00 | 0.00 | 60 | 1020.0 |
| 20260509180300 | 56 | 92 | 6.0 | 7.0 | 0.00 | 0.00 | 0.00 | 59 | 1020.1 |
| 20260509175806 | 56 | 87 | 6.0 | 8.0 | 0.00 | 0.00 | 0.00 | 58 | 1020.0 |
| 20260509175311 | 56 | 87 | 5.0 | 7.0 | 0.00 | 0.00 | 0.00 | 57 | 1020.0 |
| 20260509174817 | 57 | 89 | 6.0 | 9.0 | 0.00 | 0.00 | 0.00 | 57 | 1020.1 |
| 20260509174323 | 57 | 91 | 6.0 | 7.0 | 0.00 | 0.00 | 0.00 | 57 | 1020.0 |
| 20260509173828 | 57 | 90 | 6.0 | 7.0 | 0.00 | 0.00 | 0.00 | 57 | 1020.0 |
| 20260509173334 | 58 | 96 | 6.0 | 8.0 | 0.00 | 0.00 | 0.00 | 57 | 1019.9 |
| 20260509172839 | 58 | 86 | 7.0 | 10.0 | 0.00 | 0.00 | 0.00 | 57 | 1019.9 |
| 20260509172345 | 58 | 99 | 6.0 | 9.0 | 0.00 | 0.00 | 0.00 | 57 | 1020.0 |
| 20260509171850 | 58 | 96 | 5.0 | 6.0 | 0.00 | 0.00 | 0.00 | 56 | 1019.9 |
| 20260509171355 | 59 | 92 | 5.0 | 7.0 | 0.00 | 0.00 | 0.00 | 56 | 1019.9 |
| 20260509170901 | 59 | 99 | 5.0 | 8.0 | 0.00 | 0.00 | 0.00 | 56 | 1019.9 |
| 20260509170406 | 59 | 93 | 6.0 | 7.0 | 0.00 | 0.00 | 0.00 | 56 | 1019.9 |
| 20260509165912 | 60 | 99 | 7.0 | 12.0 | 0.00 | 0.00 | 0.00 | 56 | 1019.9 |
| 20260509165417 | 60 | 90 | 7.0 | 9.0 | 0.00 | 0.00 | 0.00 | 56 | 1020.0 |
| 20260509164922 | 60 | 93 | 7.0 | 8.0 | 0.00 | 0.00 | 0.00 | 56 | 1019.9 |
| 20260509163438 | 61 | 84 | 5.0 | 7.0 | 0.00 | 0.00 | 0.00 | 58 | 1020.0 |
| 20260509162944 | 61 | 90 | 6.0 | 8.0 | 0.00 | 0.00 | 0.00 | 59 | 1020.0 |
| 20260509162449 | 61 | 93 | 5.0 | 7.0 | 0.00 | 0.00 | 0.00 | 59 | 1020.0 |
| 20260509161954 | 61 | 90 | 6.0 | 8.0 | 0.00 | 0.00 | 0.00 | 57 | 1020.0 |
| 20260509161459 | 62 | 96 | 6.0 | 8.0 | 0.00 | 0.00 | 0.00 | 58 | 1020.0 |
| 20260509161004 | 62 | 93 | 6.0 | 10.0 | 0.00 | 0.00 | 0.00 | 57 | 1020.0 |
| 20260509160510 | 62 | 81 | 4.0 | 7.0 | 0.00 | 0.00 | 0.00 | 58 | 1020.1 |
| 20260509160015 | 62 | 90 | 6.0 | 7.0 | 0.00 | 0.00 | 0.00 | 58 | 1020.0 |
| 20260509155520 | 63 | 91 | 6.0 | 7.0 | 0.00 | 0.00 | 0.00 | 60 | 1020.0 |
| 20260509155025 | 64 | 112 | 3.0 | 7.0 | 0.00 | 0.00 | 0.00 | 57 | 1020.0 |
| 20260509154530 | 64 | 87 | 3.0 | 5.0 | 0.00 | 0.00 | 0.00 | 61 | 1020.1 |
| 20260509154035 | 64 | 89 | 4.0 | 7.0 | 0.00 | 0.00 | 0.00 | 59 | 1020.1 |
| 20260509153540 | 64 | 102 | 4.0 | 6.0 | 0.00 | 0.00 | 0.00 | 59 | 1020.1 |
| 20260509153045 | 64 | 105 | 5.0 | 8.0 | 0.00 | 0.00 | 0.00 | 56 | 1020.1 |
| 20260509152551 | 63 | 135 | 6.0 | 7.0 | 0.00 | 0.00 | 0.00 | 54 | 1020.2 |
| 20260509152056 | 63 | 106 | 5.0 | 7.0 | 0.00 | 0.00 | 0.00 | 53 | 1020.2 |
| 20260509151601 | 63 | 102 | 5.0 | 7.0 | 0.00 | 0.00 | 0.00 | 53 | 1020.2 |
| 20260509150612 | 65 | 76 | 2.0 | 4.0 | 0.00 | 0.00 | 0.00 | 56 | 1020.2 |
| 20260509150116 | 65 | 55 | 2.0 | 4.0 | 0.00 | 0.00 | 0.00 | 57 | 1020.2 |
| 20260509145621 | 65 | 133 | 1.0 | 3.0 | 0.00 | 0.00 | 0.00 | 58 | 1020.3 |
| 20260509145127 | 64 | 106 | 3.0 | 5.0 | 0.00 | 0.00 | 0.00 | 58 | 1020.3 |
| 20260509144632 | 64 | 105 | 3.0 | 6.0 | 0.00 | 0.00 | 0.00 | 59 | 1020.3 |
| 20260509144137 | 65 | 102 | 4.0 | 5.0 | 0.00 | 0.00 | 0.00 | 59 | 1020.3 |
| 20260509143642 | 67 | 170 | 2.0 | 4.0 | 0.00 | 0.00 | 0.00 | 59 | 1020.3 |
| 20260509143146 | 68 | 173 | 2.0 | 3.0 | 0.00 | 0.00 | 0.00 | 60 | 1020.2 |
| 20260509142651 | 69 | 91 | 1.0 | 4.0 | 0.00 | 0.00 | 0.00 | 61 | 1020.3 |
| 20260509142156 | 68 | 86 | 2.0 | 3.0 | 0.00 | 0.00 | 0.00 | 61 | 1020.3 |
| 20260509141701 | 67 | 105 | 3.0 | 4.0 | 0.00 | 0.00 | 0.00 | 59 | 1020.4 |
| 20260509141206 | 66 | 114 | 2.0 | 2.0 | 0.00 | 0.00 | 0.00 | 59 | 1020.5 |
| 20260509140711 | 66 | 107 | 2.0 | 5.0 | 0.00 | 0.00 | 0.00 | 57 | 1020.6 |
| 20260509140221 | 65 | 154 | 1.0 | 3.0 | 0.00 | 0.00 | 0.00 | 58 | 1020.6 |
| 20260509135721 | 66 | 92 | 2.0 | 5.0 | 0.00 | 0.00 | 0.00 | 58 | 1020.7 |
| 20260509134731 | 67 | 178 | 1.0 | 2.0 | 0.00 | 0.00 | 0.00 | 60 | 1020.7 |
| 20260509134236 | 67 | 164 | 1.0 | 2.0 | 0.00 | 0.00 | 0.00 | 62 | 1020.8 |
| 20260509133741 | 68 | 121 | 3.0 | 5.0 | 0.00 | 0.00 | 0.00 | 62 | 1020.8 |
| 20260509133245 | 69 | 116 | 4.0 | 7.0 | 0.00 | 0.00 | 0.00 | 62 | 1020.8 |
| 20260509132750 | 71 | 109 | 4.0 | 6.0 | 0.00 | 0.00 | 0.00 | 55 | 1020.7 |